Location: ??? ????
(38.0580°N, 23.1536°E)
Time: 14:44:50
(UTC+00:00)

Cosmos 2084 Rocket - Pass Details

Date: 13 December 2025
Orbit: 545 x 569 km, 62.8° (Epoch: 17 January)

Event Time Altitude Azimuth Distance (km) Brightness Sun altitude
Rises 15:41:22 0° 326° (NW) 2,770 7.0 -6.7°
Reaches altitude 10° 15:43:36 10° 326° (NNW) 1,871 6.2 -7.1°
Maximum altitude 15:47:50 90° 226° (SW) 574 3.4 -7.8°
Drops below altitude 10° 15:52:02 10° 148° (SSE) 1,861 5.9 -8.6°
Sets 15:54:15 0° 148° (SSE) 2,753 6.8 -9.0°
